Terminal Aerodrome Forecast
Issued by NWS

Home | Current Version | Previous Version | Text Only | Print | Product List | Glossary On
Versions: 1 2 3 4 5 6 7 8 9 10 11 12 13 14 15
000
FTUS45 KABQ 191212 AAA
TAFGUP
TAF AMD
KGUP 191212Z 1912/2012 21006KT P6SM SCT025 BKN040
      TEMPO 1912/1914 -RASN BKN019
     FM191400 22010KT P6SM BKN040 OVC100
     FM191700 23014G24KT P6SM BKN040 OVC100
     FM191900 24015G25KT 6SM -SHRA BR OVC035
     FM200200 24011KT P6SM VCSH OVC020
     FM200600 23011KT 4SM BR OVC015=

USA.gov is the U.S. government's official web portal to all federal, state and local government web resources and services.